Simultaneous Nadir Overpasses (SNOs) Predictions

Prediction of SNOs between LANDSAT-8 and NPP Satellite Orbit:

Table of predicted SNOs for the next 14.0 days since TLE Epoch: 10/26/2019
Index Date (LANDSAT-8) Time (LANDSAT-8) Lat,Lon (LANDSAT-8) SZA (LANDSAT-8 ) Date (NPP) Time (NPP) Lat,Lon (NPP) SZA (NPP ) Distance(km) Time Diff (sec)
1 10/27/2019 06:58:48 -70.13,-108.12 97.28 10/27/2019 06:58:00 -70.10,-108.11 97.30 2.80 48
2 10/27/2019 07:48:15 70.02, 59.38 82.63 10/27/2019 07:48:45 70.03, 59.30 82.64 2.83 30
3 10/29/2019 22:25:34 70.95,-158.65 84.45 10/29/2019 22:24:27 70.96,-161.03 84.45 86.36 67
4 10/29/2019 23:15:18 -70.07, 7.68 96.44 10/29/2019 23:14:54 -70.09, 7.69 96.42 1.26 24
5 10/30/2019 00:04:45 69.97, 175.18 83.47 10/30/2019 00:05:38 69.96, 175.18 83.47 0.44 53
6 11/01/2019 14:42:17 70.18, -43.92 84.53 11/01/2019 14:41:06 70.16, -43.97 84.51 3.31 71
7 11/01/2019 15:31:48 -70.02, 123.48 95.62 11/01/2019 15:31:47 -70.02, 123.56 95.62 2.86 1
8 11/01/2019 16:21:17 69.80, -69.18 84.17 11/01/2019 16:22:29 69.79, -68.80 84.17 14.63 72
9 11/04/2019 06:58:46 70.12, 71.87 85.31 11/04/2019 06:57:58 70.09, 71.90 85.29 2.96 48
10 11/04/2019 07:48:16 -70.01,-120.64 94.79 11/04/2019 07:48:40 -70.00,-120.65 94.79 0.94 24
11 11/06/2019 23:15:15 70.11,-172.26 86.11 11/06/2019 23:14:52 70.08,-172.32 86.09 3.46 23
12 11/07/2019 00:04:46 -69.95, -4.85 94.04 11/07/2019 00:05:33 -69.94, -4.79 94.05 2.73 47




NCC Satellite Simultaneous Nadir Overpasses (SNOs) Prediction Service
